This is the latest recevied weather packets stored in our database for station/object KD9JJA. If no packets are shown the sender has not sent any weather packets the latest 10 day(s).
| Time | Temp. | Humidity | Pressure | Rain* | Wind** | Luminosity | Snow |
|---|---|---|---|---|---|---|---|
| 1777758367 | 13.33° C | 45% | 1019.2 hPa | 0 mm | - | 49 W/m² | - |
| 1777758064 | 12.78° C | 47% | 1019.2 hPa | 0 mm | - | 75 W/m² | - |
| 1777757761 | 12.78° C | 51% | 1019 hPa | 0 mm | - | 64 W/m² | - |
| 1777757459 | 12.78° C | 52% | 1019.2 hPa | 0 mm | - | 56 W/m² | - |
| 1777757158 | 12.78° C | 47% | 1019.2 hPa | 0 mm | - | 37 W/m² | - |
| 1777756855 | 12.78° C | 49% | 1019.1 hPa | 0 mm | - | 47 W/m² | - |
| 1777756550 | 13.33° C | 50% | 1019 hPa | 0 mm | - | 65 W/m² | - |
| 1777756248 | 13.33° C | 47% | 1019 hPa | 0 mm | - | 71 W/m² | - |
| 1777755944 | 12.78° C | 47% | 1019 hPa | 0 mm | - | 63 W/m² | - |
| 1777755642 | 12.78° C | 48% | 1019 hPa | 0 mm | - | 53 W/m² | - |
| 1777755338 | 12.78° C | 43% | 1018.9 hPa | 0 mm | - | 64 W/m² | - |
| 1777755035 | 12.78° C | 48% | 1019 hPa | 0 mm | - | 66 W/m² | - |
| 1777754732 | 12.78° C | 45% | 1019.2 hPa | 0 mm | - | 70 W/m² | - |
| 1777754430 | 12.78° C | 50% | 1019.2 hPa | 0 mm | - | 86 W/m² | - |
| 1777754126 | 12.78° C | 52% | 1019.1 hPa | 0 mm | - | 98 W/m² | - |
| 1777753823 | 12.78° C | 46% | 1019.3 hPa | 0 mm | - | 79 W/m² | - |
| 1777753520 | 12.78° C | 47% | 1019.2 hPa | 0 mm | - | 57 W/m² | - |
| 1777753218 | 13.33° C | 41% | 1019.3 hPa | 0 mm | - | 372 W/m² | - |
| 1777752914 | 13.33° C | 44% | 1019.4 hPa | 0 mm | - | 50 W/m² | - |
| 1777752610 | 12.78° C | 47% | 1019.2 hPa | 0 mm | - | 74 W/m² | - |
| 1777752306 | 12.78° C | 45% | 1019.5 hPa | 0 mm | - | 138 W/m² | - |
| 1777752004 | 12.78° C | 49% | 1019.5 hPa | 0 mm | - | 230 W/m² | - |
| 1777751702 | 12.78° C | 48% | 1019.2 hPa | 0 mm | - | 94 W/m² | - |
| 1777751397 | 12.78° C | 49% | 1019.4 hPa | 0 mm | - | 71 W/m² | - |
| 1777751095 | 12.78° C | 46% | 1019.2 hPa | 0 mm | - | 469 W/m² | - |
* Rain latest hour (hover to see other rain measurements)
** Current wind speed in m/s (hover to see current wind gust speed)